Tucson Davis Monthan, AZ

3:07 PM MST on April 23, 2017 (GMT -0700)
Davis-Monthan Air Force Base

Weather History for KDMA - October, 2013

Change the Weather History Date:

Friday, October 11, 2013

  Actual Average Record
Temperature  
Mean Temperature 62 °F -  
Max Temperature 74 °F 85 °F 99 °F (1950)
Min Temperature 49 °F 57 °F 43 °F (1973)
Degree Days  
Heating Degree Days 4    
Growing Degree Days 12 (Base 50)    
Moisture  
Dew Point 38 °F    
Average Humidity 45    
Maximum Humidity 68    
Minimum Humidity 25    
Precipitation  
Precipitation 0.00 in - - ()
Sea Level Pressure  
Sea Level Pressure 29.91 in    
Wind  
Wind Speed 5 mph (SSW)    
Max Wind Speed 12 mph    
Max Gust Speed -    
Visibility 10 miles    
Events      
Averages and records for this station are not official NWS values.
T = Trace of Precipitation, MM = Missing Value Source: NWS Daily Summary

Daily Weather History Graph

Daily Weather History Graph

Search for Another Location

Airport or City:

Trip Planner

Search our weather history database for the weather conditions in past years. The results will help you decide how hot, cold, wet, or windy it might be!

Date:

Astronomy

Oct. 11, 2013 Rise Set
Actual Time 6:24 AM MST 5:55 PM MST
Civil Twilight 5:59 AM MST 6:19 PM MST
Nautical Twilight 5:31 AM MST 6:48 PM MST
Astronomical Twilight 5:03 AM MST 7:16 PM MST
Moon 12:58 PM MST (10/11) 11:53 PM MST (10/11)
Length of Visible Light 12h 20m
Length of Day
11h 30m
Waxing Crescent, 48% of the Moon is Illuminated
Oct 11
Waxing Crescent
Oct 11
First Quarter
Oct 18
Full
Oct 26
Last Quarter
Nov 3
New

Hourly Weather History & Observations

Time (MST) Temp. Dew Point Humidity Pressure Visibility Wind Dir Wind Speed Gust Speed Precip Events Conditions
12:58 AM 54.1 °F 42.1 °F 64% 29.91 in 10.0 mi SW 5.8 mph - N/A   Clear
1:58 AM 52.2 °F 41.2 °F 66% 29.92 in 10.0 mi SE 5.8 mph - N/A   Clear
2:58 AM 51.3 °F 40.3 °F 66% 29.92 in 10.0 mi SSE 4.6 mph - N/A   Clear
3:58 AM 50.9 °F 39.7 °F 66% 29.92 in 10.0 mi SE 5.8 mph - N/A   Clear
4:58 AM 50.4 °F 39.7 °F 67% 29.94 in 10.0 mi SE 5.8 mph - N/A   Clear
5:58 AM 49.6 °F 39.6 °F 68% 29.95 in 10.0 mi SE 5.8 mph - N/A   Clear
6:58 AM 49.8 °F 39.6 °F 68% 29.95 in 10.0 mi SE 4.6 mph - N/A   Clear
7:58 AM 55.8 °F 40.8 °F 57% 29.96 in 10.0 mi SSE 6.9 mph - N/A   Clear
8:58 AM 57.7 °F 41.4 °F 54% 29.97 in 10.0 mi Calm Calm - N/A   Clear
9:58 AM 62.4 °F 41.7 °F 47% 29.96 in 10.0 mi Calm Calm - N/A   Clear
10:58 AM 65.7 °F 41.0 °F 41% 29.95 in 10.0 mi Variable 4.6 mph - N/A   Clear
11:58 AM 68.9 °F 41.2 °F 36% 29.93 in 10.0 mi Variable 1.2 mph - N/A   Clear
12:58 PM 71.1 °F 39.4 °F 32% 29.90 in 10.0 mi Variable 2.3 mph - N/A   Clear
1:58 PM 72.9 °F 36.7 °F 27% 29.88 in 10.0 mi Variable 1.2 mph - N/A   Clear
2:58 PM 73.9 °F 36.5 °F 26% 29.88 in 10.0 mi WSW 3.5 mph - N/A   Clear
3:58 PM 74.3 °F 36.7 °F 25% 29.86 in 10.0 mi West 8.1 mph - N/A   Clear
4:58 PM 73.4 °F 37.0 °F 27% 29.86 in 10.0 mi NW 4.6 mph - N/A   Clear
5:58 PM 71.6 °F 33.8 °F 25% 29.86 in 10.0 mi NW 9.2 mph - N/A   Clear
6:58 PM 68.5 °F 35.4 °F 30% 29.88 in 10.0 mi NW 10.4 mph - N/A   Clear
7:58 PM 66.2 °F 34.2 °F 30% 29.87 in 10.0 mi WNW 11.5 mph - N/A   Clear
8:58 PM 64.4 °F 34.2 °F 32% 29.89 in 10.0 mi West 6.9 mph - N/A   Clear
9:58 PM 61.0 °F 33.8 °F 36% 29.90 in 10.0 mi Variable 3.5 mph - N/A   Clear
10:58 PM 57.9 °F 33.1 °F 39% 29.90 in 10.0 mi South 6.9 mph - N/A   Clear
11:58 PM 56.7 °F 32.7 °F 40% 29.90 in 10.0 mi SSE 4.6 mph - N/A   Clear